owner,sensor,date,latitude,longitude,vertical_datum,direction_of_sea_water_velocity,sea_water_speed,upward_sea_water_velocity,qcFlag 
TABS,ioos:station:wmo:42047:1,2012-12-18T00:00:00Z,27.8966,-93.5973,2.0,128.8450329,27.04006657,-99999.0,'11111222,11111222,99999999' 
TABS,ioos:station:wmo:42047:1,2012-12-18T00:30:00Z,27.8966,-93.5973,2.0,128.8928477,42.60455492,-99999.0,'11111222,11111222,99999999' 
TABS,ioos:station:wmo:42047:1,2012-12-18T01:00:00Z,27.8966,-93.5973,2.0,129.5989066,39.06430596,-99999.0,'11111222,11111222,99999999' 
TABS,ioos:station:wmo:42047:1,2012-12-18T01:30:00Z,27.8966,-93.5973,2.0,133.0506559,38.04314524,-99999.0,'11111222,11111222,99999999' 
TABS,ioos:station:wmo:42047:1,2012-12-18T02:00:00Z,27.8966,-93.5973,2.0,132.0972492,35.18835319,-99999.0,'11111222,11111222,99999999' 
TABS,ioos:station:wmo:42047:1,2012-12-18T02:30:00Z,27.8966,-93.5973,2.0,132.6987545,33.81282893,-99999.0,'11111222,11111222,99999999' 
TABS,ioos:station:wmo:42047:1,2012-12-18T03:00:00Z,27.8966,-93.5973,2.0,132.3135436,31.83357504,-99999.0,'11111222,11111222,99999999' 
TABS,ioos:station:wmo:42047:1,2012-12-18T03:30:00Z,27.8966,-93.5973,2.0,135.1848565,28.47533845,-99999.0,'11111222,11111222,99999999' 
TABS,ioos:station:wmo:42047:1,2012-12-18T04:00:00Z,27.8966,-93.5973,2.0,133.1468169,28.64573441,-99999.0,'11111222,11111222,99999999' 
TABS,ioos:station:wmo:42047:1,2012-12-18T04:30:00Z,27.8966,-93.5973,2.0,132.7253649,26.19065673,-99999.0,'11111222,11111222,99999999' 
TABS,ioos:station:wmo:42047:1,2012-12-18T05:00:00Z,27.8966,-93.5973,2.0,129.1348986,22.97395047,-99999.0,'11111222,11111222,99999999' 
TABS,ioos:station:wmo:42047:1,2012-12-18T05:30:00Z,27.8966,-93.5973,2.0,133.9332957,22.41209718,-99999.0,'11111222,11111222,99999999' 
TABS,ioos:station:wmo:42047:1,2012-12-18T06:00:00Z,27.8966,-93.5973,2.0,131.7140346,24.79657436,-99999.0,'11111222,11111222,99999999' 
TABS,ioos:station:wmo:42047:1,2012-12-18T06:30:00Z,27.8966,-93.5973,2.0,132.2541289,23.76485851,-99999.0,'11111222,11111222,99999999' 
TABS,ioos:station:wmo:42047:1,2012-12-18T07:00:00Z,27.8966,-93.5973,2.0,127.8476315,20.27495253,-99999.0,'11111222,11111222,99999999' 
TABS,ioos:station:wmo:42047:1,2012-12-18T07:30:00Z,27.8966,-93.5973,2.0,126.1527135,19.81555197,-99999.0,'11111222,11111222,99999999' 
TABS,ioos:station:wmo:42047:1,2012-12-18T08:00:00Z,27.8966,-93.5973,2.0,88.79365882,20.42452692,-99999.0,'11111222,11111222,99999999' 
TABS,ioos:station:wmo:42047:1,2012-12-18T08:30:00Z,27.8966,-93.5973,2.0,125.6607486,9.194046987,-99999.0,'11133222,11111222,99999999' 
TABS,ioos:station:wmo:42047:1,2012-12-18T09:00:00Z,27.8966,-93.5973,2.0,115.4013313,14.31378706,-99999.0,'11111222,11111222,99999999' 
TABS,ioos:station:wmo:42047:1,2012-12-18T09:30:00Z,27.8966,-93.5973,2.0,163.1669129,11.08495377,-99999.0,'11111222,11111222,99999999' 
TABS,ioos:station:wmo:42047:1,2012-12-18T10:00:00Z,27.8966,-93.5973,2.0,172.0313896,9.521937828,-99999.0,'11133222,11111222,99999999' 
TABS,ioos:station:wmo:42047:1,2012-12-18T10:30:00Z,27.8966,-93.5973,2.0,152.9769683,11.75314851,-99999.0,'11111222,11111222,99999999' 
TABS,ioos:station:wmo:42047:1,2012-12-18T11:00:00Z,27.8966,-93.5973,2.0,151.4276425,13.1516767,-99999.0,'11111222,11111222,99999999' 
TABS,ioos:station:wmo:42047:1,2012-12-18T11:30:00Z,27.8966,-93.5973,2.0,157.0228988,9.504030724,-99999.0,'11133222,11111222,99999999' 
TABS,ioos:station:wmo:42047:1,2012-12-18T12:00:00Z,27.8966,-93.5973,2.0,130.9687134,11.6678447,-99999.0,'11111222,11111222,99999999' 
TABS,ioos:station:wmo:42047:1,2012-12-18T12:30:00Z,27.8966,-93.5973,2.0,110.5736824,15.16736299,-99999.0,'11111222,11111222,99999999' 
TABS,ioos:station:wmo:42047:1,2012-12-18T13:00:00Z,27.8966,-93.5973,2.0,86.6198663,14.7556701,-99999.0,'11111222,11111222,99999999' 
TABS,ioos:station:wmo:42047:1,2012-12-18T13:30:00Z,27.8966,-93.5973,2.0,84.61654248,12.89688722,-99999.0,'11111222,11111222,99999999' 
TABS,ioos:station:wmo:42047:1,2012-12-18T14:00:00Z,27.8966,-93.5973,2.0,70.10108708,11.63465513,-99999.0,'11111222,11111222,99999999' 
TABS,ioos:station:wmo:42047:1,2012-12-18T14:30:00Z,27.8966,-93.5973,2.0,80.66285691,14.29945803,-99999.0,'11111222,11111222,99999999' 
TABS,ioos:station:wmo:42047:1,2012-12-18T15:00:00Z,27.8966,-93.5973,2.0,90.58067923,11.84060809,-99999.0,'11111222,11111222,99999999' 
TABS,ioos:station:wmo:42047:1,2012-12-18T15:30:00Z,27.8966,-93.5973,2.0,90.20744169,13.81009051,-99999.0,'11111222,11111222,99999999' 
TABS,ioos:station:wmo:42047:1,2012-12-18T16:00:00Z,27.8966,-93.5973,2.0,85.7740117,14.2487403,-99999.0,'11111222,11111222,99999999' 
TABS,ioos:station:wmo:42047:1,2012-12-18T16:30:00Z,27.8966,-93.5973,2.0,77.0740311,15.02062582,-99999.0,'11111222,11111222,99999999' 
TABS,ioos:station:wmo:42047:1,2012-12-18T17:00:00Z,27.8966,-93.5973,2.0,72.88653205,15.63213357,-99999.0,'11111222,11111222,99999999' 
TABS,ioos:station:wmo:42047:1,2012-12-18T17:30:00Z,27.8966,-93.5973,2.0,69.96815174,19.06328933,-99999.0,'11111222,11111222,99999999' 
TABS,ioos:station:wmo:42047:1,2012-12-18T18:00:00Z,27.8966,-93.5973,2.0,64.44793294,17.20252307,-99999.0,'11111222,11111222,99999999' 
TABS,ioos:station:wmo:42047:1,2012-12-18T18:30:00Z,27.8966,-93.5973,2.0,61.25671748,18.23713245,-99999.0,'11111222,11111222,99999999' 
TABS,ioos:station:wmo:42047:1,2012-12-18T19:00:00Z,27.8966,-93.5973,2.0,64.31412735,20.69500906,-99999.0,'11111222,11111222,99999999' 
TABS,ioos:station:wmo:42047:1,2012-12-18T19:30:00Z,27.8966,-93.5973,2.0,63.0912412,22.36108226,-99999.0,'11111222,11111222,99999999' 
TABS,ioos:station:wmo:42047:1,2012-12-18T20:00:00Z,27.8966,-93.5973,2.0,56.2822719,22.91466779,-99999.0,'11111222,11111222,99999999' 
TABS,ioos:station:wmo:42047:1,2012-12-18T20:30:00Z,27.8966,-93.5973,2.0,58.84697751,23.8727334,-99999.0,'11111222,11111222,99999999' 
TABS,ioos:station:wmo:42047:1,2012-12-18T21:00:00Z,27.8966,-93.5973,2.0,70.19286663,23.37277262,-99999.0,'11111222,11111222,99999999' 
TABS,ioos:station:wmo:42047:1,2012-12-18T21:30:00Z,27.8966,-93.5973,2.0,53.87871362,24.64810338,-99999.0,'11111222,11111222,99999999' 
TABS,ioos:station:wmo:42047:1,2012-12-18T22:00:00Z,27.8966,-93.5973,2.0,59.53689416,24.53723905,-99999.0,'11111222,11111222,99999999' 
TABS,ioos:station:wmo:42047:1,2012-12-18T22:30:00Z,27.8966,-93.5973,2.0,59.86222017,27.12703449,-99999.0,'11111222,11111222,99999999' 
TABS,ioos:station:wmo:42047:1,2012-12-18T23:00:00Z,27.8966,-93.5973,2.0,57.67817023,25.90356346,-99999.0,'11111222,11111222,99999999' 
TABS,ioos:station:wmo:42047:1,2012-12-18T23:30:00Z,27.8966,-93.5973,2.0,67.45617202,24.36155988,-99999.0,'11111222,11111222,99999999' 
TABS,ioos:station:wmo:42047:1,2012-12-19T00:00:00Z,27.8966,-93.5973,2.0,66.36927105,23.32593835,-99999.0,'11111222,11111222,99999999' 
TABS,ioos:station:wmo:42047:1,2012-12-19T00:30:00Z,27.8966,-93.5973,2.0,57.92735575,25.25446693,-99999.0,'11111222,11111222,99999999' 
TABS,ioos:station:wmo:42047:1,2012-12-19T01:00:00Z,27.8966,-93.5973,2.0,61.98964994,26.06295647,-99999.0,'11111222,11111222,99999999' 
TABS,ioos:station:wmo:42047:1,2012-12-19T01:30:00Z,27.8966,-93.5973,2.0,60.35083066,24.52046084,-99999.0,'11111222,11111222,99999999' 
TABS,ioos:station:wmo:42047:1,2012-12-19T02:00:00Z,27.8966,-93.5973,2.0,53.95655304,26.07071154,-99999.0,'11111222,11111222,99999999' 
TABS,ioos:station:wmo:42047:1,2012-12-19T02:30:00Z,27.8966,-93.5973,2.0,57.25269489,28.32127822,-99999.0,'11111222,11111222,99999999' 
TABS,ioos:station:wmo:42047:1,2012-12-19T03:00:00Z,27.8966,-93.5973,2.0,53.35570959,26.42220468,-99999.0,'11111222,11111222,99999999' 
TABS,ioos:station:wmo:42047:1,2012-12-19T03:30:00Z,27.8966,-93.5973,2.0,56.18383486,27.70734199,-99999.0,'11111222,11111222,99999999' 
TABS,ioos:station:wmo:42047:1,2012-12-19T04:00:00Z,27.8966,-93.5973,2.0,53.54671188,27.78673424,-99999.0,'11111222,11111222,99999999' 
TABS,ioos:station:wmo:42047:1,2012-12-19T04:30:00Z,27.8966,-93.5973,2.0,60.77141587,29.73605387,-99999.0,'11111222,11111222,99999999' 
TABS,ioos:station:wmo:42047:1,2012-12-19T05:00:00Z,27.8966,-93.5973,2.0,62.36132267,33.41272213,-99999.0,'11111222,11111222,99999999' 
TABS,ioos:station:wmo:42047:1,2012-12-19T05:30:00Z,27.8966,-93.5973,2.0,60.13500179,31.93033197,-99999.0,'11111222,11111222,99999999' 
TABS,ioos:station:wmo:42047:1,2012-12-19T06:00:00Z,27.8966,-93.5973,2.0,60.11490911,33.43614362,-99999.0,'11111222,11111222,99999999' 
TABS,ioos:station:wmo:42047:1,2012-12-19T06:30:00Z,27.8966,-93.5973,2.0,65.43196907,32.46953803,-99999.0,'11111222,11111222,99999999' 
TABS,ioos:station:wmo:42047:1,2012-12-19T07:00:00Z,27.8966,-93.5973,2.0,59.53791584,34.28216592,-99999.0,'11111222,11111222,99999999' 
TABS,ioos:station:wmo:42047:1,2012-12-19T07:30:00Z,27.8966,-93.5973,2.0,59.0215057,39.80825291,-99999.0,'11111222,11111222,99999999' 
TABS,ioos:station:wmo:42047:1,2012-12-19T08:00:00Z,27.8966,-93.5973,2.0,59.32167908,37.53293087,-99999.0,'11111222,11111222,99999999' 
TABS,ioos:station:wmo:42047:1,2012-12-19T08:30:00Z,27.8966,-93.5973,2.0,61.78602537,37.14305453,-99999.0,'11111222,11111222,99999999' 
TABS,ioos:station:wmo:42047:1,2012-12-19T09:00:00Z,27.8966,-93.5973,2.0,65.85496362,40.1419145,-99999.0,'11111222,11111222,99999999' 
TABS,ioos:station:wmo:42047:1,2012-12-19T09:30:00Z,27.8966,-93.5973,2.0,63.91647562,39.91522266,-99999.0,'11111222,11111222,99999999' 
TABS,ioos:station:wmo:42047:1,2012-12-19T10:00:00Z,27.8966,-93.5973,2.0,61.81857974,43.59831419,-99999.0,'11111222,11111222,99999999' 
TABS,ioos:station:wmo:42047:1,2012-12-19T10:30:00Z,27.8966,-93.5973,2.0,55.37199514,39.98260122,-99999.0,'11111222,11111222,99999999' 
TABS,ioos:station:wmo:42047:1,2012-12-19T11:00:00Z,27.8966,-93.5973,2.0,56.32404972,33.95874703,-99999.0,'11111222,11111222,99999999' 
TABS,ioos:station:wmo:42047:1,2012-12-19T11:30:00Z,27.8966,-93.5973,2.0,60.23904353,35.2147029,-99999.0,'11111222,11111222,99999999' 
TABS,ioos:station:wmo:42047:1,2012-12-19T12:00:00Z,27.8966,-93.5973,2.0,58.52741378,33.40409705,-99999.0,'11111222,11111222,99999999' 
TABS,ioos:station:wmo:42047:1,2012-12-19T12:30:00Z,27.8966,-93.5973,2.0,59.57036515,29.99126039,-99999.0,'11111222,11111222,99999999' 
TABS,ioos:station:wmo:42047:1,2012-12-19T13:00:00Z,27.8966,-93.5973,2.0,57.34740218,30.025296,-99999.0,'11111222,11111222,99999999' 
TABS,ioos:station:wmo:42047:1,2012-12-19T13:30:00Z,27.8966,-93.5973,2.0,57.02886495,28.73850553,-99999.0,'11111222,11111222,99999999' 
TABS,ioos:station:wmo:42047:1,2012-12-19T14:00:00Z,27.8966,-93.5973,2.0,55.31815374,27.39797438,-99999.0,'11111222,11111222,99999999' 
TABS,ioos:station:wmo:42047:1,2012-12-19T14:30:00Z,27.8966,-93.5973,2.0,55.44469285,22.03797858,-99999.0,'11111222,11111222,99999999' 
TABS,ioos:station:wmo:42047:1,2012-12-19T15:00:00Z,27.8966,-93.5973,2.0,44.2606402,25.20338469,-99999.0,'11111222,11111222,99999999' 
TABS,ioos:station:wmo:42047:1,2012-12-19T15:30:00Z,27.8966,-93.5973,2.0,61.9164835,30.37647116,-99999.0,'11111222,11111222,99999999' 
TABS,ioos:station:wmo:42047:1,2012-12-19T16:00:00Z,27.8966,-93.5973,2.0,57.90996531,26.52223595,-99999.0,'11111222,11111222,99999999' 
TABS,ioos:station:wmo:42047:1,2012-12-19T16:30:00Z,27.8966,-93.5973,2.0,60.67522014,31.30100637,-99999.0,'11111222,11111222,99999999' 
TABS,ioos:station:wmo:42047:1,2012-12-19T17:00:00Z,27.8966,-93.5973,2.0,64.05132428,32.42933394,-99999.0,'11111222,11111222,99999999' 
TABS,ioos:station:wmo:42047:1,2012-12-19T17:30:00Z,27.8966,-93.5973,2.0,66.98918087,32.46306363,-99999.0,'11111222,11111222,99999999' 
TABS,ioos:station:wmo:42047:1,2012-12-19T18:00:00Z,27.8966,-93.5973,2.0,65.26472877,34.17559948,-99999.0,'11111222,11111222,99999999' 
TABS,ioos:station:wmo:42047:1,2012-12-19T18:30:00Z,27.8966,-93.5973,2.0,58.18827578,33.2555033,-99999.0,'11111222,11111222,99999999' 
TABS,ioos:station:wmo:42047:1,2012-12-19T19:00:00Z,27.8966,-93.5973,2.0,70.02318037,31.37799388,-99999.0,'11111222,11111222,99999999' 
TABS,ioos:station:wmo:42047:1,2012-12-19T19:30:00Z,27.8966,-93.5973,2.0,70.03215234,28.9610169,-99999.0,'11111222,11111222,99999999' 
TABS,ioos:station:wmo:42047:1,2012-12-19T20:00:00Z,27.8966,-93.5973,2.0,72.97420756,27.39044541,-99999.0,'11111222,11111222,99999999' 
TABS,ioos:station:wmo:42047:1,2012-12-19T20:30:00Z,27.8966,-93.5973,2.0,90.5364604,26.70117039,-99999.0,'11111222,11111222,99999999' 
TABS,ioos:station:wmo:42047:1,2012-12-19T21:00:00Z,27.8966,-93.5973,2.0,94.84870772,30.76007965,-99999.0,'11111222,11111222,99999999' 
TABS,ioos:station:wmo:42047:1,2012-12-19T21:30:00Z,27.8966,-93.5973,2.0,97.03607497,30.36870099,-99999.0,'11111222,11111222,99999999' 
TABS,ioos:station:wmo:42047:1,2012-12-19T22:00:00Z,27.8966,-93.5973,2.0,89.78297208,26.40018939,-99999.0,'11111222,11111222,99999999' 
TABS,ioos:station:wmo:42047:1,2012-12-19T22:30:00Z,27.8966,-93.5973,2.0,81.77424579,28.7962567,-99999.0,'11111222,11111222,99999999' 
TABS,ioos:station:wmo:42047:1,2012-12-19T23:00:00Z,27.8966,-93.5973,2.0,69.15641655,23.55131631,-99999.0,'11111222,11111222,99999999' 
TABS,ioos:station:wmo:42047:1,2012-12-19T23:30:00Z,27.8966,-93.5973,2.0,74.22199504,22.10278263,-99999.0,'11111222,11111222,99999999' 
TABS,ioos:station:wmo:42047:1,2012-12-20T00:00:00Z,27.8966,-93.5973,2.0,79.17137483,20.54585116,-99999.0,'11111222,11111222,99999999' 
TABS,ioos:station:wmo:42047:1,2012-12-20T00:30:00Z,27.8966,-93.5973,2.0,92.55839322,15.90585427,-99999.0,'11111222,11111222,99999999' 
TABS,ioos:station:wmo:42047:1,2012-12-20T01:00:00Z,27.8966,-93.5973,2.0,112.8432056,17.36167043,-99999.0,'11111222,11111222,99999999' 
TABS,ioos:station:wmo:42047:1,2012-12-20T01:30:00Z,27.8966,-93.5973,2.0,146.5392631,33.93405664,-99999.0,'11111222,11111222,99999999' 
TABS,ioos:station:wmo:42047:1,2012-12-20T02:00:00Z,27.8966,-93.5973,2.0,133.5686887,34.25586811,-99999.0,'11111222,11111222,99999999' 
TABS,ioos:station:wmo:42047:1,2012-12-20T02:30:00Z,27.8966,-93.5973,2.0,130.5908845,36.14820742,-99999.0,'11111222,11111222,99999999' 
TABS,ioos:station:wmo:42047:1,2012-12-20T03:00:00Z,27.8966,-93.5973,2.0,134.9789534,38.69288565,-99999.0,'11111222,11111222,99999999' 
TABS,ioos:station:wmo:42047:1,2012-12-20T03:30:00Z,27.8966,-93.5973,2.0,138.8777614,42.24027462,-99999.0,'11111222,11111222,99999999' 
TABS,ioos:station:wmo:42047:1,2012-12-20T04:00:00Z,27.8966,-93.5973,2.0,124.7406095,36.60527284,-99999.0,'11111222,11111222,99999999' 
TABS,ioos:station:wmo:42047:1,2012-12-20T04:30:00Z,27.8966,-93.5973,2.0,125.031961,36.35670227,-99999.0,'11111222,11111222,99999999' 
TABS,ioos:station:wmo:42047:1,2012-12-20T05:00:00Z,27.8966,-93.5973,2.0,124.1181071,41.20150725,-99999.0,'11111222,11111222,99999999' 
TABS,ioos:station:wmo:42047:1,2012-12-20T05:30:00Z,27.8966,-93.5973,2.0,130.2078719,45.03040084,-99999.0,'11111222,11111222,99999999' 
TABS,ioos:station:wmo:42047:1,2012-12-20T06:00:00Z,27.8966,-93.5973,2.0,124.7210197,46.08640689,-99999.0,'11111222,11111222,99999999' 
TABS,ioos:station:wmo:42047:1,2012-12-20T06:30:00Z,27.8966,-93.5973,2.0,126.1699853,41.9191269,-99999.0,'11111222,11111222,99999999' 
TABS,ioos:station:wmo:42047:1,2012-12-20T07:00:00Z,27.8966,-93.5973,2.0,122.3252544,46.69681467,-99999.0,'11111222,11111222,99999999' 
TABS,ioos:station:wmo:42047:1,2012-12-20T07:30:00Z,27.8966,-93.5973,2.0,135.5287001,39.84009287,-99999.0,'11111222,11111222,99999999' 
TABS,ioos:station:wmo:42047:1,2012-12-20T08:00:00Z,27.8966,-93.5973,2.0,131.9871143,50.58562642,-99999.0,'11111222,11111222,99999999' 
TABS,ioos:station:wmo:42047:1,2012-12-20T08:30:00Z,27.8966,-93.5973,2.0,127.9061972,43.34509084,-99999.0,'11111222,11111222,99999999' 
TABS,ioos:station:wmo:42047:1,2012-12-20T09:00:00Z,27.8966,-93.5973,2.0,123.6132029,47.59886658,-99999.0,'11111222,11111222,99999999' 
TABS,ioos:station:wmo:42047:1,2012-12-20T09:30:00Z,27.8966,-93.5973,2.0,122.3073978,51.26645004,-99999.0,'11111222,11111222,99999999' 
TABS,ioos:station:wmo:42047:1,2012-12-20T10:00:00Z,27.8966,-93.5973,2.0,119.6356122,54.01598467,-99999.0,'11111222,11111222,99999999' 
TABS,ioos:station:wmo:42047:1,2012-12-20T10:30:00Z,27.8966,-93.5973,2.0,118.9342925,53.22366861,-99999.0,'11111222,11111222,99999999' 
TABS,ioos:station:wmo:42047:1,2012-12-20T11:00:00Z,27.8966,-93.5973,2.0,120.1432491,49.58532444,-99999.0,'11111222,11111222,99999999' 
TABS,ioos:station:wmo:42047:1,2012-12-20T11:30:00Z,27.8966,-93.5973,2.0,118.2750222,51.40326254,-99999.0,'11111222,11111222,99999999' 
TABS,ioos:station:wmo:42047:1,2012-12-20T12:00:00Z,27.8966,-93.5973,2.0,118.985152,60.15469142,-99999.0,'11111222,11111222,99999999' 
TABS,ioos:station:wmo:42047:1,2012-12-20T12:30:00Z,27.8966,-93.5973,2.0,166.4993582,28.27118851,-99999.0,'11111222,11111222,99999999' 
TABS,ioos:station:wmo:42047:1,2012-12-20T13:00:00Z,27.8966,-93.5973,2.0,79.78428431,57.51173793,-99999.0,'11111222,11111222,99999999' 
TABS,ioos:station:wmo:42047:1,2012-12-20T13:30:00Z,27.8966,-93.5973,2.0,108.6620179,57.44006267,-99999.0,'11111222,11111222,99999999' 
TABS,ioos:station:wmo:42047:1,2012-12-20T14:00:00Z,27.8966,-93.5973,2.0,121.3557782,68.16542379,-99999.0,'11111222,11111222,99999999' 
TABS,ioos:station:wmo:42047:1,2012-12-20T14:30:00Z,27.8966,-93.5973,2.0,122.1929737,60.1944225,-99999.0,'11111222,11111222,99999999' 
TABS,ioos:station:wmo:42047:1,2012-12-20T15:00:00Z,27.8966,-93.5973,2.0,122.7757472,62.75012749,-99999.0,'11111222,11111222,99999999' 
TABS,ioos:station:wmo:42047:1,2012-12-20T15:30:00Z,27.8966,-93.5973,2.0,126.6688575,63.29638931,-99999.0,'11111222,11111222,99999999' 
TABS,ioos:station:wmo:42047:1,2012-12-20T16:00:00Z,27.8966,-93.5973,2.0,124.1703208,64.84395808,-99999.0,'11111222,11111222,99999999' 
TABS,ioos:station:wmo:42047:1,2012-12-20T16:30:00Z,27.8966,-93.5973,2.0,125.5533378,63.46075086,-99999.0,'11111222,11111222,99999999' 
TABS,ioos:station:wmo:42047:1,2012-12-20T17:00:00Z,27.8966,-93.5973,2.0,123.750702,62.81705899,-99999.0,'11111222,11111222,99999999' 
TABS,ioos:station:wmo:42047:1,2012-12-20T17:30:00Z,27.8966,-93.5973,2.0,124.3847811,60.61099983,-99999.0,'11111222,11111222,99999999' 
TABS,ioos:station:wmo:42047:1,2012-12-20T18:00:00Z,27.8966,-93.5973,2.0,129.6222904,57.26606761,-99999.0,'11111222,11111222,99999999' 
TABS,ioos:station:wmo:42047:1,2012-12-20T18:30:00Z,27.8966,-93.5973,2.0,126.7727741,57.86408299,-99999.0,'11111222,11111222,99999999' 
TABS,ioos:station:wmo:42047:1,2012-12-20T19:00:00Z,27.8966,-93.5973,2.0,124.9703729,60.94348612,-99999.0,'11111222,11111222,99999999' 
TABS,ioos:station:wmo:42047:1,2012-12-20T19:30:00Z,27.8966,-93.5973,2.0,121.1006481,61.69850728,-99999.0,'11111222,11111222,99999999' 
TABS,ioos:station:wmo:42047:1,2012-12-20T20:00:00Z,27.8966,-93.5973,2.0,128.8712849,59.21212376,-99999.0,'11111222,11111222,99999999' 
TABS,ioos:station:wmo:42047:1,2012-12-20T20:30:00Z,27.8966,-93.5973,2.0,120.7848686,52.7532217,-99999.0,'11111222,11111222,99999999' 
TABS,ioos:station:wmo:42047:1,2012-12-20T21:00:00Z,27.8966,-93.5973,2.0,122.1171564,53.75683491,-99999.0,'11111222,11111222,99999999' 
TABS,ioos:station:wmo:42047:1,2012-12-20T21:30:00Z,27.8966,-93.5973,2.0,119.7738462,53.84844659,-99999.0,'11111222,11111222,99999999' 
TABS,ioos:station:wmo:42047:1,2012-12-20T22:00:00Z,27.8966,-93.5973,2.0,119.5707572,51.85420041,-99999.0,'11111222,11111222,99999999' 
TABS,ioos:station:wmo:42047:1,2012-12-20T22:30:00Z,27.8966,-93.5973,2.0,114.4893505,51.11874901,-99999.0,'11111222,11111222,99999999' 
TABS,ioos:station:wmo:42047:1,2012-12-20T23:00:00Z,27.8966,-93.5973,2.0,126.4537461,46.8212345,-99999.0,'11111222,11111222,99999999' 
TABS,ioos:station:wmo:42047:1,2012-12-20T23:30:00Z,27.8966,-93.5973,2.0,122.4910977,48.3832223,-99999.0,'11111222,11111222,99999999' 
TABS,ioos:station:wmo:42047:1,2012-12-21T00:00:00Z,27.8966,-93.5973,2.0,116.4605621,44.16688805,-99999.0,'11111222,11111222,99999999' 
TABS,ioos:station:wmo:42047:1,2012-12-21T00:30:00Z,27.8966,-93.5973,2.0,119.761914,45.70928243,-99999.0,'11111222,11111222,99999999' 
TABS,ioos:station:wmo:42047:1,2012-12-21T01:00:00Z,27.8966,-93.5973,2.0,122.5709345,44.02385717,-99999.0,'11111222,11111222,99999999' 
TABS,ioos:station:wmo:42047:1,2012-12-21T01:30:00Z,27.8966,-93.5973,2.0,123.4785163,46.58958682,-99999.0,'11111222,11111222,99999999' 
TABS,ioos:station:wmo:42047:1,2012-12-21T02:00:00Z,27.8966,-93.5973,2.0,122.262607,41.3074739,-99999.0,'11111222,11111222,99999999' 
TABS,ioos:station:wmo:42047:1,2012-12-21T02:30:00Z,27.8966,-93.5973,2.0,118.3714462,44.97178893,-99999.0,'11111222,11111222,99999999' 
TABS,ioos:station:wmo:42047:1,2012-12-21T03:00:00Z,27.8966,-93.5973,2.0,116.8328226,36.35439038,-99999.0,'11111222,11111222,99999999' 
TABS,ioos:station:wmo:42047:1,2012-12-21T03:30:00Z,27.8966,-93.5973,2.0,120.7425478,37.32523007,-99999.0,'11111222,11111222,99999999' 
TABS,ioos:station:wmo:42047:1,2012-12-21T04:00:00Z,27.8966,-93.5973,2.0,117.746414,33.18583131,-99999.0,'11111222,11111222,99999999' 
TABS,ioos:station:wmo:42047:1,2012-12-21T04:30:00Z,27.8966,-93.5973,2.0,117.4438562,32.65490622,-99999.0,'11111222,11111222,99999999' 
TABS,ioos:station:wmo:42047:1,2012-12-21T05:00:00Z,27.8966,-93.5973,2.0,117.5786067,31.60058544,-99999.0,'11111222,11111222,99999999' 
TABS,ioos:station:wmo:42047:1,2012-12-21T05:30:00Z,27.8966,-93.5973,2.0,122.8745523,32.35061823,-99999.0,'11111222,11111222,99999999' 
TABS,ioos:station:wmo:42047:1,2012-12-21T06:00:00Z,27.8966,-93.5973,2.0,125.0373664,25.83120981,-99999.0,'11111222,11111222,99999999' 
TABS,ioos:station:wmo:42047:1,2012-12-21T06:30:00Z,27.8966,-93.5973,2.0,116.8164811,28.52803008,-99999.0,'11111222,11111222,99999999' 
TABS,ioos:station:wmo:42047:1,2012-12-21T07:00:00Z,27.8966,-93.5973,2.0,118.8527994,25.65473251,-99999.0,'11111222,11111222,99999999' 
TABS,ioos:station:wmo:42047:1,2012-12-21T07:30:00Z,27.8966,-93.5973,2.0,126.5320763,25.78644799,-99999.0,'11111222,11111222,99999999' 
TABS,ioos:station:wmo:42047:1,2012-12-21T08:00:00Z,27.8966,-93.5973,2.0,125.7243306,24.61091831,-99999.0,'11111222,11111222,99999999' 
TABS,ioos:station:wmo:42047:1,2012-12-21T08:30:00Z,27.8966,-93.5973,2.0,127.1731262,21.91230704,-99999.0,'11111222,11111222,99999999' 
TABS,ioos:station:wmo:42047:1,2012-12-21T09:00:00Z,27.8966,-93.5973,2.0,123.6543925,22.3211402,-99999.0,'11111222,11111222,99999999' 
TABS,ioos:station:wmo:42047:1,2012-12-21T09:30:00Z,27.8966,-93.5973,2.0,123.4976266,22.3046206,-99999.0,'11111222,11111222,99999999' 
TABS,ioos:station:wmo:42047:1,2012-12-21T10:00:00Z,27.8966,-93.5973,2.0,129.1612718,21.40911955,-99999.0,'11111222,11111222,99999999' 
TABS,ioos:station:wmo:42047:1,2012-12-21T10:30:00Z,27.8966,-93.5973,2.0,127.8165162,23.24117252,-99999.0,'11111222,11111222,99999999' 
TABS,ioos:station:wmo:42047:1,2012-12-21T11:00:00Z,27.8966,-93.5973,2.0,125.2852503,20.3237718,-99999.0,'11111222,11111222,99999999' 
TABS,ioos:station:wmo:42047:1,2012-12-21T11:30:00Z,27.8966,-93.5973,2.0,127.0306664,22.08408703,-99999.0,'11111222,11111222,99999999' 
TABS,ioos:station:wmo:42047:1,2012-12-21T12:00:00Z,27.8966,-93.5973,2.0,129.534541,23.01488649,-99999.0,'11111222,11111222,99999999' 
TABS,ioos:station:wmo:42047:1,2012-12-21T12:30:00Z,27.8966,-93.5973,2.0,130.653952,18.84909547,-99999.0,'11111222,11111222,99999999' 
TABS,ioos:station:wmo:42047:1,2012-12-21T13:00:00Z,27.8966,-93.5973,2.0,121.9903779,16.27096801,-99999.0,'11111222,11111222,99999999' 
TABS,ioos:station:wmo:42047:1,2012-12-21T13:30:00Z,27.8966,-93.5973,2.0,125.0050305,21.51139233,-99999.0,'11111222,11111222,99999999' 
TABS,ioos:station:wmo:42047:1,2012-12-21T14:00:00Z,27.8966,-93.5973,2.0,125.4507832,16.87917652,-99999.0,'11111222,11111222,99999999' 
TABS,ioos:station:wmo:42047:1,2012-12-21T14:30:00Z,27.8966,-93.5973,2.0,124.1337227,15.0411469,-99999.0,'11111222,11111222,99999999' 
TABS,ioos:station:wmo:42047:1,2012-12-21T15:00:00Z,27.8966,-93.5973,2.0,122.1494211,19.80718304,-99999.0,'11111222,11111222,99999999' 
TABS,ioos:station:wmo:42047:1,2012-12-21T15:30:00Z,27.8966,-93.5973,2.0,132.8295038,18.85792406,-99999.0,'11111222,11111222,99999999' 
TABS,ioos:station:wmo:42047:1,2012-12-21T16:00:00Z,27.8966,-93.5973,2.0,136.0599507,17.58168365,-99999.0,'11111222,11111222,99999999' 